Time,TemperatureF,DewpointF,PressureIn,WindDirection,WindDirectionDegrees,WindSpeedMPH,WindSpeedGustMPH,Humidity,HourlyPrecipIn,Conditions,Clouds,dailyrainin,SolarRadiationWatts/m^2,SoftwareType,DateUTC
2013-09-06 00:22:00,55.0,47.0,-100.00,East,92,10.0,14.0,75,0.00,,,0.02,1.000000,,2013-09-06 06:22:00,
2013-09-06 00:32:00,55.0,47.0,-100.00,East,92,10.0,14.0,75,0.00,,,0.02,1.000000,,2013-09-06 06:32:00,
2013-09-06 00:42:00,55.0,47.0,-100.00,East,92,10.0,14.0,75,0.00,,,0.02,1.000000,,2013-09-06 06:42:00,
2013-09-06 00:53:00,55.0,47.0,-100.00,East,92,10.0,14.0,75,0.00,,,0.02,1.000000,,2013-09-06 06:53:00,
2013-09-06 01:23:00,55.0,45.0,-100.00,NW,320,3.0,14.0,69,0.00,,,0.02,0.000000,,2013-09-06 07:23:00,
2013-09-06 01:32:00,55.0,45.0,-100.00,NW,320,3.0,14.0,69,0.00,,,0.02,0.000000,,2013-09-06 07:32:00,
2013-09-06 01:42:00,55.0,45.0,-100.00,NW,320,3.0,14.0,69,0.00,,,0.02,0.000000,,2013-09-06 07:42:00,
2013-09-06 01:52:00,55.0,45.0,-100.00,NW,320,3.0,14.0,69,0.00,,,0.02,0.000000,,2013-09-06 07:52:00,
2013-09-06 02:22:00,51.0,46.0,-100.00,East,81,4.0,5.0,82,0.00,,,0.02,0.000000,,2013-09-06 08:22:00,
2013-09-06 02:32:00,51.0,46.0,-100.00,East,81,4.0,5.0,82,0.00,,,0.02,0.000000,,2013-09-06 08:32:00,
2013-09-06 02:42:00,51.0,46.0,-100.00,East,81,4.0,5.0,82,0.00,,,0.02,0.000000,,2013-09-06 08:42:00,
2013-09-06 02:52:00,51.0,46.0,-100.00,East,81,4.0,5.0,82,0.00,,,0.02,0.000000,,2013-09-06 08:52:00,
2013-09-06 03:22:00,50.0,45.0,-100.00,ENE,67,5.0,7.0,82,0.00,,,0.02,0.000000,,2013-09-06 09:22:00,
2013-09-06 03:33:00,50.0,45.0,-100.00,ENE,67,5.0,7.0,82,0.00,,,0.02,0.000000,,2013-09-06 09:33:00,
2013-09-06 03:43:00,50.0,45.0,-100.00,ENE,67,5.0,7.0,82,0.00,,,0.02,0.000000,,2013-09-06 09:43:00,
2013-09-06 03:53:00,50.0,45.0,-100.00,ENE,67,5.0,7.0,82,0.00,,,0.02,0.000000,,2013-09-06 09:53:00,
2013-09-06 04:23:00,48.0,44.0,-100.00,East,95,5.0,9.0,86,0.00,,,-99.99,0.000000,,2013-09-06 10:23:00,
2013-09-06 04:32:00,48.0,44.0,-100.00,East,95,5.0,9.0,86,0.00,,,-99.99,0.000000,,2013-09-06 10:32:00,
2013-09-06 04:43:00,48.0,44.0,-100.00,East,95,5.0,9.0,86,0.00,,,-99.99,0.000000,,2013-09-06 10:43:00,
2013-09-06 04:53:00,48.0,44.0,-100.00,East,95,5.0,9.0,86,0.00,,,-99.99,0.000000,,2013-09-06 10:53:00,
2013-09-06 05:22:00,48.0,43.0,-100.00,East,83,9.0,12.0,84,0.00,,,0.02,1.000000,,2013-09-06 11:22:00,
2013-09-06 05:33:00,48.0,43.0,-100.00,East,83,9.0,12.0,84,0.00,,,0.02,1.000000,,2013-09-06 11:33:00,
2013-09-06 05:42:00,48.0,43.0,-100.00,East,83,9.0,12.0,84,0.00,,,0.02,1.000000,,2013-09-06 11:42:00,
2013-09-06 05:52:00,48.0,43.0,-100.00,East,83,9.0,12.0,84,0.00,,,0.02,1.000000,,2013-09-06 11:52:00,
2013-09-06 06:22:00,49.0,43.0,-100.00,East,88,5.0,10.0,80,0.00,,,0.02,1.000000,,2013-09-06 12:22:00,
2013-09-06 06:32:00,49.0,43.0,-100.00,East,88,5.0,10.0,80,0.00,,,0.02,1.000000,,2013-09-06 12:32:00,
2013-09-06 06:42:00,49.0,43.0,-100.00,East,88,5.0,10.0,80,0.00,,,0.02,1.000000,,2013-09-06 12:42:00,
2013-09-06 06:52:00,49.0,43.0,-100.00,East,88,5.0,10.0,80,0.00,,,0.02,1.000000,,2013-09-06 12:52:00,
2013-09-06 07:22:00,47.0,43.0,-100.00,ESE,104,7.0,10.0,87,0.00,,,-99.99,3.000000,,2013-09-06 13:22:00,
2013-09-06 07:32:00,47.0,43.0,-100.00,ESE,104,7.0,10.0,87,0.00,,,-99.99,3.000000,,2013-09-06 13:32:00,
2013-09-06 07:42:00,47.0,43.0,-100.00,ESE,104,7.0,10.0,87,0.00,,,-99.99,3.000000,,2013-09-06 13:42:00,
2013-09-06 07:52:00,47.0,43.0,-100.00,ESE,104,7.0,10.0,87,0.00,,,-99.99,3.000000,,2013-09-06 13:52:00,
2013-09-06 08:22:00,53.0,45.0,-100.00,East,86,7.0,11.0,75,0.00,,,0.02,83.000000,,2013-09-06 14:22:00,
2013-09-06 08:32:00,53.0,45.0,-100.00,East,86,7.0,11.0,75,0.00,,,0.02,83.000000,,2013-09-06 14:32:00,
2013-09-06 08:42:00,53.0,45.0,-100.00,East,86,7.0,11.0,75,0.00,,,0.02,83.000000,,2013-09-06 14:42:00,
2013-09-06 08:52:00,53.0,45.0,-100.00,East,86,7.0,11.0,75,0.00,,,0.02,83.000000,,2013-09-06 14:52:00,
2013-09-06 09:43:00,59.0,47.0,-100.00,East,88,6.0,10.0,64,0.00,,,0.02,277.000000,,2013-09-06 15:43:00,
2013-09-06 09:53:00,59.0,47.0,-100.00,East,88,6.0,10.0,64,0.00,,,0.02,277.000000,,2013-09-06 15:53:00,
2013-09-06 10:43:00,67.0,46.0,-100.00,ESE,103,3.0,9.0,46,0.00,,,0.02,406.000000,,2013-09-06 16:43:00,
2013-09-06 10:53:00,67.0,46.0,-100.00,ESE,103,3.0,9.0,46,0.00,,,0.02,406.000000,,2013-09-06 16:53:00,
2013-09-06 11:24:00,69.0,46.0,-100.00,WSW,258,7.0,9.0,44,0.00,,,0.02,630.000000,,2013-09-06 17:24:00,
2013-09-06 11:34:00,69.0,46.0,-100.00,WSW,258,7.0,9.0,44,0.00,,,0.02,630.000000,,2013-09-06 17:34:00,
2013-09-06 11:43:00,69.0,46.0,-100.00,WSW,258,7.0,9.0,44,0.00,,,0.02,630.000000,,2013-09-06 17:43:00,
2013-09-06 11:53:00,69.0,46.0,-100.00,WSW,258,7.0,9.0,44,0.00,,,0.02,630.000000,,2013-09-06 17:53:00,
2013-09-06 12:22:00,73.0,44.0,-100.00,West,262,8.0,14.0,36,0.00,,,0.02,767.000000,,2013-09-06 18:22:00,
2013-09-06 12:32:00,73.0,44.0,-100.00,West,262,8.0,14.0,36,0.00,,,0.02,767.000000,,2013-09-06 18:32:00,
2013-09-06 12:42:00,73.0,44.0,-100.00,West,262,8.0,14.0,36,0.00,,,0.02,767.000000,,2013-09-06 18:42:00,
2013-09-06 12:52:00,73.0,44.0,-100.00,West,262,8.0,14.0,36,0.00,,,0.02,767.000000,,2013-09-06 18:52:00,
2013-09-06 13:22:00,75.0,43.0,-100.00,West,264,14.0,20.0,32,0.00,,,0.02,892.000000,,2013-09-06 19:22:00,
2013-09-06 13:32:00,75.0,43.0,-100.00,West,264,14.0,20.0,32,0.00,,,0.02,892.000000,,2013-09-06 19:32:00,
2013-09-06 13:43:00,75.0,43.0,-100.00,West,264,14.0,20.0,32,0.00,,,0.02,892.000000,,2013-09-06 19:43:00,
2013-09-06 13:52:00,75.0,43.0,-100.00,West,264,14.0,20.0,32,0.00,,,0.02,892.000000,,2013-09-06 19:52:00,
2013-09-06 14:23:00,77.0,42.0,-100.00,WSW,254,8.0,20.0,29,0.00,,,0.02,453.000000,,2013-09-06 20:23:00,
2013-09-06 14:32:00,77.0,42.0,-100.00,WSW,254,8.0,20.0,29,0.00,,,0.02,453.000000,,2013-09-06 20:32:00,
2013-09-06 14:42:00,77.0,42.0,-100.00,WSW,254,8.0,20.0,29,0.00,,,0.02,453.000000,,2013-09-06 20:42:00,
2013-09-06 14:52:00,77.0,42.0,-100.00,WSW,254,8.0,20.0,29,0.00,,,0.02,453.000000,,2013-09-06 20:52:00,
2013-09-06 15:22:00,77.0,40.0,-100.00,WNW,297,5.0,13.0,27,0.00,,,0.02,489.000000,,2013-09-06 21:22:00,
2013-09-06 15:34:00,77.0,40.0,-100.00,WNW,297,5.0,13.0,27,0.00,,,0.02,489.000000,,2013-09-06 21:34:00,
2013-09-06 15:43:00,77.0,40.0,-100.00,WNW,297,5.0,13.0,27,0.00,,,0.02,489.000000,,2013-09-06 21:43:00,
2013-09-06 15:54:00,77.0,40.0,-100.00,WNW,297,5.0,13.0,27,0.00,,,0.02,489.000000,,2013-09-06 21:54:00,
2013-09-06 16:23:00,72.0,42.0,-100.00,East,83,11.0,20.0,34,0.00,,,0.02,498.000000,,2013-09-06 22:23:00,
2013-09-06 16:33:00,72.0,42.0,-100.00,East,83,11.0,20.0,34,0.00,,,0.02,498.000000,,2013-09-06 22:33:00,
2013-09-06 16:44:00,72.0,42.0,-100.00,East,83,11.0,20.0,34,0.00,,,0.02,498.000000,,2013-09-06 22:44:00,
2013-09-06 16:53:00,72.0,42.0,-100.00,East,83,11.0,20.0,34,0.00,,,0.02,498.000000,,2013-09-06 22:53:00,
2013-09-06 17:52:00,57.0,46.0,-100.00,WNW,294,5.0,21.0,67,0.01,,,-99.99,48.000000,,2013-09-06 23:52:00,
2013-09-06 18:22:00,58.0,46.0,-100.00,NNW,328,10.0,15.0,64,0.01,,,0.04,42.000000,,2013-09-07 00:22:00,
2013-09-06 18:32:00,58.0,46.0,-100.00,NNW,328,10.0,15.0,64,0.01,,,0.04,42.000000,,2013-09-07 00:32:00,
2013-09-06 18:42:00,58.0,46.0,-100.00,NNW,328,10.0,15.0,64,0.01,,,0.04,42.000000,,2013-09-07 00:42:00,
2013-09-06 18:52:00,58.0,46.0,-100.00,NNW,328,10.0,15.0,64,0.01,,,0.04,42.000000,,2013-09-07 00:52:00,
2013-09-06 19:22:00,58.0,47.0,-100.00,ENE,70,8.0,13.0,66,0.00,,,-99.99,23.000000,,2013-09-07 01:22:00,
2013-09-06 19:32:00,58.0,47.0,-100.00,ENE,70,8.0,13.0,66,0.00,,,-99.99,23.000000,,2013-09-07 01:32:00,
2013-09-06 19:42:00,58.0,47.0,-100.00,ENE,70,8.0,13.0,66,0.00,,,-99.99,23.000000,,2013-09-07 01:42:00,
2013-09-06 19:53:00,58.0,47.0,-100.00,ENE,70,8.0,13.0,66,0.00,,,-99.99,23.000000,,2013-09-07 01:53:00,
2013-09-06 20:23:00,56.0,48.0,-100.00,East,92,4.0,18.0,74,0.00,,,0.02,5.000000,,2013-09-07 02:23:00,
2013-09-06 20:32:00,56.0,48.0,-100.00,East,92,4.0,18.0,74,0.00,,,0.02,5.000000,,2013-09-07 02:32:00,
2013-09-06 20:42:00,56.0,48.0,-100.00,East,92,4.0,18.0,74,0.00,,,0.02,5.000000,,2013-09-07 02:42:00,
2013-09-06 20:52:00,56.0,48.0,-100.00,East,92,4.0,18.0,74,0.00,,,0.02,5.000000,,2013-09-07 02:52:00,
2013-09-06 21:23:00,53.0,49.0,-100.00,East,91,16.0,29.0,86,0.02,,,0.04,1.000000,,2013-09-07 03:23:00,
2013-09-06 21:34:00,53.0,49.0,-100.00,East,91,16.0,29.0,86,0.02,,,0.04,1.000000,,2013-09-07 03:34:00,
2013-09-06 21:45:00,53.0,49.0,-100.00,East,91,16.0,29.0,86,0.02,,,0.04,1.000000,,2013-09-07 03:45:00,
2013-09-06 21:55:00,53.0,49.0,-100.00,East,91,16.0,29.0,86,0.02,,,0.04,1.000000,,2013-09-07 03:55:00,
2013-09-06 22:24:00,51.0,48.0,-100.00,ENE,75,8.0,19.0,89,0.01,,,0.05,1.000000,,2013-09-07 04:24:00,
2013-09-06 22:34:00,51.0,48.0,-100.00,ENE,75,8.0,19.0,89,0.01,,,0.05,1.000000,,2013-09-07 04:34:00,
2013-09-06 22:43:00,51.0,48.0,-100.00,ENE,75,8.0,19.0,89,0.01,,,0.05,1.000000,,2013-09-07 04:43:00,
2013-09-06 22:54:00,51.0,48.0,-100.00,ENE,75,8.0,19.0,89,0.01,,,0.05,1.000000,,2013-09-07 04:54:00,
2013-09-06 23:23:00,51.0,47.0,-100.00,East,90,9.0,14.0,86,0.00,,,0.05,1.000000,,2013-09-07 05:23:00,
2013-09-06 23:33:00,51.0,47.0,-100.00,East,90,9.0,14.0,86,0.00,,,0.05,1.000000,,2013-09-07 05:33:00,
2013-09-06 23:42:00,51.0,47.0,-100.00,East,90,9.0,14.0,86,0.00,,,0.05,1.000000,,2013-09-07 05:42:00,
2013-09-06 23:52:00,51.0,47.0,-100.00,East,90,9.0,14.0,86,0.00,,,0.05,1.000000,,2013-09-07 05:52:00,